Location: Antin
(43.3330°N, 0.2804°E)
Time: 07:37:17
(UTC+00:00)

SME Rocket - Pass Details

Date: 29 May 2022
Orbit: 551 x 2650 km, 99.9° (Epoch: 06 July)

Event Time Altitude Azimuth Distance (km) Brightness Sun altitude
Exits shadow 00:21:11 17° 98° (E) 1,626 5.2 -24.8°
Maximum altitude 00:23:19 25° 57° (ENE) 1,427 5.3 -24.8°
Drops below altitude 10° 00:27:35 10° 4° (N) 2,547 7.3 -24.7°
Sets 00:30:49 0° 353° (N) 3,801 8.3 -24.6°
